Zurück zum Katalog

COSMOS 1857

AktivMilitärLEO
NORAD 18118·PAYLOAD·🇷🇺 Russia

Gestartet Jun 16, 1987 von Plesetsk Cosmodrome

Loading…

Nächste Überflüge (nächste 24 Stunden)

TLE

AktuellSource: Space-Track

Epoche: Sep 14, 2026, 19:19 UTC

1 18118U 87051F   26257.80497972 -.00000023  00000-0 -40602-4 0  9991
2 18118  74.0057  31.7231 0038309  30.0111 330.3127 12.54275260797017

Verfolge COSMOS 1857 in Echtzeit mit AllMySat

Download on the App Store